Project,Study,Ord_Occ,Event_Num,Cast_ID,Date_Time_UTC,Date_Time_PST,Lat_Dec,Lon_Dec,Sta_ID,Line,Sta,Depth,Pressure,PrQ,Temp1,Temp1Q,Temp2,Temp2Q,TempAve,Salt1,Salt1Q,Salt1_Corr,Salt2,Salt2Q,Salt2_Corr,SaltAve_Corr,Ox1,Ox1Q,Ox1_CruiseCorr,Ox1_StaCorr,Ox2,Ox2Q,Ox2_CruiseCorr,Ox2_StaCorr,OxAve_StaCorr,Ox1uM,Ox1uM_CruiseCorr,Ox1uM_StaCorr,Ox2uM,Ox2uM_CruiseCorr,Ox2uM_StaCorr,OxAveuM_StaCorr,FluorV,FluorQ,EstChl_CruiseCorr,EstChl_StaCorr,ISUSV,ISUSQ,EstNO3_CruiseCorr,EstNO3_StaCorr,SigThetaTS1,SigThetaTS1Q,SigThetaTS2,SigThetaTS2Q,BAT,XMiss,TransQ,pH,pHQ,SPAR,SPARQ,PAR,PARQ,PoT1,PoT2,DynHt,SVA,OxSat1,OxSat2,BTL_Depth,BTL_Temp,SaltB,OxB,OxBuM,Chl-a,Phaeo,NO3,NO2,NH4,PO4,SIL
CalCOFI,2007SR,055,57,2007_055d,23-Jul-2020 19:56:23,23-Jul-2020 11:56:23,34.31702,-120.80202,080.0 055.0,080.0,055.0,1.000,1.007,,15.8522,,15.9130,,15.8826,33.6713,,33.6715,33.6719,,33.6735,33.6725,5.8112,,6.0544,6.1754,4.2622,,6.2340,4.8057,5.4906,253.257,263.8869,227.4734,185.753,453.8857,178.9966,203.2350,0.1263,,1.0613,1.7543,-99.0,,-99.0,-99.0,24.7591,,24.7459,,1.2515,73.1343,,8.145,,2.4681E+03,,1.2648E+02,,15.8520,15.9129,0.0000,,102.976,75.618,1,16.138,33.6799,6.027,263.09,4.061,0.203,0.12,0.00,0.00,0.28,2.66
CalCOFI,2007SR,055,57,2007_055d,23-Jul-2020 19:56:30,23-Jul-2020 11:56:30,34.31702,-120.80202,080.0 055.0,080.0,055.0,2.000,2.014,,15.8365,,15.8938,,15.8652,33.6757,,33.6759,33.6768,,33.6784,33.6772,5.7893,,6.0315,6.1519,4.2871,,6.2934,4.8656,5.5088,252.303,262.8910,226.6774,186.835,451.5523,181.0661,203.8718,0.1130,,0.9045,1.5058,-99.0,,-99.0,-99.0,24.7661,,24.7540,,1.2393,73.3571,,8.151,,2.4678E+03,,9.2450E+01,,15.8362,15.8935,0.0046,,102.560,76.033,,,,,,,,,,,,
CalCOFI,2007SR,055,57,2007_055d,23-Jul-2020 19:56:33,23-Jul-2020 11:56:33,34.31702,-120.80202,080.0 055.0,080.0,055.0,3.000,3.022,,15.9077,,15.9129,,15.9103,33.6743,,33.6745,33.6745,,33.6761,33.6753,5.7659,,6.0071,6.1268,4.2983,,6.3201,4.8925,5.5097,251.287,261.8304,225.8297,187.326,449.0673,182.0052,203.9175,0.1307,,1.1132,1.8368,-99.0,,-99.0,-99.0,24.7490,,24.7479,,1.2469,73.2185,,8.153,,2.4807E+03,,7.8305E+01,,15.9072,15.9124,0.0080,,102.288,76.259,,,,,,,,,,,,
CalCOFI,2007SR,055,57,2007_055d,23-Jul-2020 19:56:35,23-Jul-2020 11:56:35,34.31702,-120.80202,080.0 055.0,080.0,055.0,4.000,4.029,,15.7344,,15.7544,,15.7444,33.6712,,33.6714,33.6720,,33.6736,33.6725,5.7879,,6.0301,6.1504,4.3193,,6.3703,4.9429,5.5467,252.234,262.8190,226.6199,188.236,451.3836,183.7458,205.1829,0.1604,,1.4638,2.3967,-99.0,,-99.0,-99.0,24.7856,,24.7817,,1.2672,72.8479,,8.154,,2.4614E+03,,6.2621E+01,,15.7338,15.7538,0.0112,,102.326,76.393,,,,,,,,,,,,
CalCOFI,2007SR,055,57,2007_055d,23-Jul-2020 19:56:37,23-Jul-2020 11:56:37,34.31702,-120.80202,080.0 055.0,080.0,055.0,5.000,5.036,,15.6435,,15.6535,,15.6485,33.6738,,33.6740,33.6736,,33.6752,33.6746,5.7976,,6.0402,6.1608,4.3322,,6.4011,4.9739,5.5674,252.653,263.2564,226.9694,188.791,452.4084,184.8074,205.8884,0.1897,,1.8103,2.9546,-99.0,,-99.0,-99.0,24.8079,,24.8056,,1.2737,72.7301,,8.154,,2.4709E+03,,4.8503E+01,,15.6428,15.6527,0.0143,,102.316,76.469,,,,,,,,,,,,
CalCOFI,2007SR,055,57,2007_055d,23-Jul-2020 19:56:40,23-Jul-2020 11:56:40,34.31702,-120.80202,080.0 055.0,080.0,055.0,6.000,6.043,,15.5451,,15.5554,,15.5503,33.6699,,33.6701,33.6697,,33.6713,33.6707,5.9322,,6.1809,6.3050,4.3493,,6.4419,5.0150,5.6600,258.512,269.3726,231.8578,189.533,466.7386,186.2266,209.0422,0.2489,,2.5118,4.0984,-99.0,,-99.0,-99.0,24.8269,,24.8245,,1.3033,72.1942,,8.157,,2.4482E+03,,3.7816E+01,,15.5442,15.5545,0.0175,,104.484,76.620,,,,,,,,,,,,
CalCOFI,2007SR,055,57,2007_055d,23-Jul-2020 19:56:42,23-Jul-2020 11:56:42,34.31702,-120.80202,080.0 055.0,080.0,055.0,7.000,7.051,,15.4019,,15.4160,,15.4090,33.6727,,33.6729,33.6733,,33.6749,33.6739,5.9537,,6.2033,6.3280,4.3617,,6.4715,5.0448,5.6864,259.444,270.3455,232.6354,190.070,469.0182,187.2537,209.9446,0.3498,,3.7124,6.0993,-99.0,,-99.0,-99.0,24.8609,,24.8583,,1.3920,70.6111,,8.162,,2.4658E+03,,3.0990E+01,,15.4008,15.4149,0.0206,,104.570,76.630,,,,,,,,,,,,
CalCOFI,2007SR,055,57,2007_055d,23-Jul-2020 19:56:43,23-Jul-2020 11:56:43,34.31702,-120.80202,080.0 055.0,080.0,055.0,8.000,8.058,,15.3280,,15.3387,,15.3334,33.6708,,33.6710,33.6725,,33.6741,33.6726,5.9624,,6.2124,6.3373,4.3688,,6.4884,5.0618,5.6996,259.816,270.7338,232.9458,190.374,469.9280,187.8352,210.3905,0.4537,,4.9552,8.2273,-99.0,,-99.0,-99.0,24.8758,,24.8747,,1.4751,69.1594,,8.164,,2.4787E+03,,2.5126E+01,,15.3268,15.3375,0.0237,,104.567,76.636,,,,,,,,,,,,
CalCOFI,2007SR,055,57,2007_055d,23-Jul-2020 19:56:45,23-Jul-2020 11:56:45,34.31702,-120.80202,080.0 055.0,080.0,055.0,9.000,9.065,,15.2803,,15.3085,,15.2944,33.6741,,33.6743,33.6757,,33.6773,33.6758,5.7522,,5.9928,6.1122,4.3848,,6.5266,5.1003,5.6063,250.655,261.1707,225.3024,191.071,447.5215,189.1683,207.2354,0.5606,,6.2407,10.4883,-99.0,,-99.0,-99.0,24.8888,,24.8839,,1.4644,69.3447,,8.160,,2.4591E+03,,1.9241E+01,,15.2790,15.3071,0.0268,,100.788,76.873,,,,,,,,,,,,
CalCOFI,2007SR,055,57,2007_055d,23-Jul-2020 19:56:48,23-Jul-2020 11:56:48,34.31702,-120.80202,080.0 055.0,080.0,055.0,10.000,10.072,,15.1599,,15.1869,,15.1734,33.6665,,33.6667,33.6657,,33.6673,33.6670,5.3631,,5.5862,5.6953,4.4113,,6.5899,5.1639,5.4296,233.695,243.4661,211.1521,192.222,406.0398,191.3698,201.2610,0.5470,,6.0768,10.1967,-99.0,,-99.0,-99.0,24.9094,,24.9029,,1.4305,69.9358,,8.151,,2.4857E+03,,1.4792E+01,,15.1584,15.1854,0.0299,,93.742,77.146,10,14.948,33.6776,, ,,,,,,,
CalCOFI,2007SR,055,57,2007_055d,23-Jul-2020 19:56:50,23-Jul-2020 11:56:50,34.31702,-120.80202,080.0 055.0,080.0,055.0,11.000,11.080,,14.9960,,15.0024,,14.9992,33.6680,,33.6682,33.6683,,33.6699,33.6691,5.4054,,5.6304,5.7406,4.4251,,6.6228,5.1971,5.4689,235.529,245.3806,212.6823,192.817,410.5255,192.5079,202.5951,0.4616,,5.0500,8.3919,-99.0,,-99.0,-99.0,24.9464,,24.9452,,1.3346,71.6326,,8.143,,2.4273E+03,,1.0850E+01,,14.9944,15.0008,0.0329,,94.174,77.106,11,14.868,33.6778,5.855,255.58,8.034,0.375,1.12,0.037,0.00,0.41,4.49
CalCOFI,2007SR,055,57,2007_055d,23-Jul-2020 19:56:51,23-Jul-2020 11:56:51,34.31702,-120.80202,080.0 055.0,080.0,055.0,12.000,12.087,,14.9008,,14.9058,,14.9033,33.6705,,33.6707,33.6728,,33.6744,33.6726,5.4784,,5.7067,5.8188,4.4336,,6.6431,5.2175,5.5182,238.706,248.6971,215.3330,193.180,418.2960,193.2022,204.2676,0.3945,,4.2463,7.0064,-99.0,,-99.0,-99.0,24.9690,,24.9697,,1.2368,73.4068,,8.133,,2.4296E+03,,8.7472E+00,,14.8990,14.9040,0.0359,,95.267,77.106,,,,,,,,,,,,
CalCOFI,2007SR,055,57,2007_055d,23-Jul-2020 19:56:54,23-Jul-2020 11:56:54,34.31702,-120.80202,080.0 055.0,080.0,055.0,13.000,13.094,,14.9478,,14.8902,,14.9190,33.6722,,33.6724,33.6707,,33.6723,33.6724,5.1929,,5.4084,5.5130,4.4389,,6.6558,5.2302,5.3716,226.267,235.7120,204.9547,193.410,387.8720,193.6421,199.2984,0.3736,,3.9965,6.5807,-99.0,,-99.0,-99.0,24.9601,,24.9714,,1.1466,75.0788,,8.117,,2.4633E+03,,6.8403E+00,,14.9459,14.8883,0.0389,,90.386,77.173,,,,,,,,,,,,
CalCOFI,2007SR,055,57,2007_055d,23-Jul-2020 19:56:56,23-Jul-2020 11:56:56,34.31702,-120.80202,080.0 055.0,080.0,055.0,14.000,14.101,,14.5383,,14.5577,,14.5480,33.6675,,33.6677,33.6670,,33.6686,33.6682,4.9972,,5.2039,5.3034,4.4679,,6.7250,5.2999,5.3017,217.721,226.7909,197.8244,194.664,366.9697,196.0407,196.9326,0.3679,,3.9285,6.4650,-99.0,,-99.0,-99.0,25.0444,,25.0400,,1.1082,75.8017,,8.107,,2.4696E+03,,5.7379E+00,,14.5362,14.5556,0.0419,,86.267,77.161,,,,,,,,,,,,
CalCOFI,2007SR,055,57,2007_055d,23-Jul-2020 19:56:58,23-Jul-2020 11:56:58,34.31702,-120.80202,080.0 055.0,080.0,055.0,15.000,15.109,,14.2320,,14.2394,,14.2357,33.6626,,33.6628,33.6620,,33.6636,33.6632,5.0679,,5.2777,5.3791,4.4800,,6.7539,5.3290,5.3541,220.787,229.9914,200.3825,195.177,374.4687,197.0219,198.7022,0.3825,,4.1029,6.7616,-99.0,,-99.0,-99.0,25.1055,,25.1035,,1.0858,76.2264,,8.100,,2.4576E+03,,4.7402E+00,,14.2298,14.2372,0.0448,,86.947,76.873,15,14.408,33.6800,,232.00,5.268,0.531,3.51,0.060,0.23,0.55,6.87
CalCOFI,2007SR,055,57,2007_055d,23-Jul-2020 19:56:59,23-Jul-2020 11:56:59,34.31702,-120.80202,080.0 055.0,080.0,055.0,16.000,16.116,,13.9847,,13.9882,,13.9865,33.6673,,33.6675,33.6701,,33.6717,33.6696,5.1165,,5.3285,5.4312,4.4833,,6.7618,5.3369,5.3841,222.896,232.1930,202.1421,195.309,379.6270,197.2744,199.7083,0.3989,,4.2989,7.0963,-99.0,,-99.0,-99.0,25.1610,,25.1623,,1.0729,76.4732,,8.093,,2.4608E+03,,3.6379E+00,,13.9824,13.9859,0.0476,,87.347,76.543,,,,,,,,,,,,
CalCOFI,2007SR,055,57,2007_055d,23-Jul-2020 19:57:01,23-Jul-2020 11:57:01,34.31702,-120.80202,080.0 055.0,080.0,055.0,17.000,17.123,,13.9648,,13.9574,,13.9611,33.6753,,33.6755,33.6751,,33.6767,33.6761,5.1079,,5.3195,5.4220,4.4758,,6.7439,5.3189,5.3705,222.518,231.7984,201.8267,194.980,378.7024,196.6451,199.2359,0.4778,,5.2444,8.7307,-99.0,,-99.0,-99.0,25.1713,,25.1726,,1.0808,76.3222,,8.087,,2.4625E+03,,2.9489E+00,,13.9623,13.9550,0.0504,,87.169,76.369,,,,,,,,,,,,
CalCOFI,2007SR,055,57,2007_055d,23-Jul-2020 19:57:04,23-Jul-2020 11:57:04,34.31702,-120.80202,080.0 055.0,080.0,055.0,18.000,18.131,,13.9341,,13.8821,,13.9081,33.6679,,33.6681,33.6723,,33.6739,33.6710,5.1145,,5.3264,5.4290,4.4637,,6.7150,5.2898,5.3594,222.804,232.0970,202.0654,194.452,379.4020,195.6352,198.8503,0.5163,,5.7071,9.5425,-99.0,,-99.0,-99.0,25.1718,,25.1860,,1.1332,75.3298,,8.082,,2.4631E+03,,2.6364E+00,,13.9316,13.8796,0.0533,,87.224,76.046,,,,,,,,,,,,
CalCOFI,2007SR,055,57,2007_055d,23-Jul-2020 19:57:06,23-Jul-2020 11:57:06,34.31702,-120.80202,080.0 055.0,080.0,055.0,19.000,19.138,,13.6076,,13.6145,,13.6111,33.6743,,33.6745,33.6747,,33.6763,33.6754,5.0961,,5.3072,5.4093,4.4713,,6.7331,5.3081,5.3587,221.987,231.2441,201.3837,194.770,377.4037,196.2434,198.8136,0.4957,,5.4594,9.1070,-99.0,,-99.0,-99.0,25.2442,,25.2430,,1.1288,75.4124,,8.078,,2.4730E+03,,2.0608E+00,,13.6049,13.6118,0.0560,,86.337,75.762,,,,,,,,,,,,
CalCOFI,2007SR,055,57,2007_055d,23-Jul-2020 19:57:07,23-Jul-2020 11:57:07,34.31702,-120.80202,080.0 055.0,080.0,055.0,20.000,20.145,,13.4998,,13.4989,,13.4994,33.6778,,33.6780,33.6805,,33.6821,33.6801,5.0735,,5.2836,5.3851,4.4691,,6.7279,5.3028,5.3440,221.000,230.2138,200.5602,194.672,374.9896,196.0560,198.3081,0.5385,,5.9744,10.0149,-99.0,,-99.0,-99.0,25.2688,,25.2711,,1.0972,76.0117,,8.072,,2.4557E+03,,1.6775E+00,,13.4970,13.4961,0.0587,,85.768,75.550,,,,,,,,,,,,
CalCOFI,2007SR,055,57,2007_055d,23-Jul-2020 19:57:09,23-Jul-2020 11:57:09,34.31702,-120.80202,080.0 055.0,080.0,055.0,21.000,21.153,,13.4600,,13.4588,,13.4594,33.6880,,33.6882,33.6849,,33.6865,33.6874,4.9869,,5.1931,5.2923,4.4622,,6.7114,5.2862,5.2893,217.224,226.2720,197.4098,194.370,365.7541,195.4783,196.4441,0.4152,,4.4939,7.4307,-99.0,,-99.0,-99.0,25.2848,,25.2827,,1.0844,76.2543,,8.063,,2.4585E+03,,1.3638E+00,,13.4571,13.4559,0.0615,,84.240,75.374,21,13.498,33.6847,5.365,234.18,9.134,1.084,3.29,0.064,0.30,0.60,8.26
CalCOFI,2007SR,055,57,2007_055d,23-Jul-2020 19:57:12,23-Jul-2020 11:57:12,34.31702,-120.80202,080.0 055.0,080.0,055.0,22.000,22.160,,13.4049,,13.4345,,13.4197,33.6837,,33.6839,33.6841,,33.6857,33.6848,4.9016,,5.1040,5.2010,4.4471,,6.6754,5.2499,5.2255,213.504,222.3887,194.3060,193.711,356.6555,194.2178,194.2619,0.3890,,4.1805,6.8941,-99.0,,-99.0,-99.0,25.2926,,25.2870,,1.0392,77.1212,,8.051,,2.4669E+03,,1.1106E+00,,13.4019,13.4315,0.0642,,82.703,75.081,,,,,,,,,,,,
CalCOFI,2007SR,055,57,2007_055d,23-Jul-2020 19:57:14,23-Jul-2020 11:57:14,34.31702,-120.80202,080.0 055.0,080.0,055.0,23.000,23.167,,13.2959,,13.3003,,13.2981,33.6826,,33.6828,33.6847,,33.6863,33.6846,4.8668,,5.0676,5.1637,4.4482,,6.6780,5.2526,5.2082,211.986,220.8041,193.0395,193.753,352.9427,194.2982,193.6689,0.4419,,4.8137,7.9821,-99.0,,-99.0,-99.0,25.3139,,25.3146,,1.0218,77.4573,,8.046,,2.4530E+03,,9.0382E-01,,13.2927,13.2972,0.0668,,81.933,74.893,,,,,,,,,,,,
CalCOFI,2007SR,055,57,2007_055d,23-Jul-2020 19:57:16,23-Jul-2020 11:57:16,34.31702,-120.80202,080.0 055.0,080.0,055.0,24.000,24.175,,13.2530,,13.2478,,13.2504,33.6825,,33.6827,33.6844,,33.6860,33.6844,4.8549,,5.0552,5.1509,4.4390,,6.6560,5.2305,5.1907,211.465,220.2602,192.6048,193.347,351.6684,193.5216,193.0632,0.4394,,4.7838,7.9303,-99.0,,-99.0,-99.0,25.3224,,25.3249,,1.0277,77.3421,,8.043,,2.4474E+03,,7.7271E-01,,13.2497,13.2445,0.0695,,81.660,74.657,,,,,,,,,,,,
CalCOFI,2007SR,055,57,2007_055d,23-Jul-2020 19:57:17,23-Jul-2020 11:57:17,34.31702,-120.80202,080.0 055.0,080.0,055.0,25.000,25.182,,13.1277,,13.1238,,13.1258,33.6839,,33.6841,33.6860,,33.6876,33.6859,4.8645,,5.0652,5.1612,4.4404,,6.6594,5.2338,5.1975,211.879,220.6924,192.9502,193.404,352.6810,193.6307,193.2905,0.4014,,4.3288,7.1475,-99.0,,-99.0,-99.0,25.3486,,25.3510,,1.0078,77.7292,,8.037,,2.4643E+03,,6.9185E-01,,13.1242,13.1204,0.0722,,81.612,74.491,,,,,,,,,,,,
CalCOFI,2007SR,055,57,2007_055d,23-Jul-2020 19:57:20,23-Jul-2020 11:57:20,34.31702,-120.80202,080.0 055.0,080.0,055.0,26.000,26.189,,13.1412,,13.1513,,13.1463,33.6873,,33.6875,33.6911,,33.6927,33.6901,4.6408,,4.8315,4.9216,4.4282,,6.6302,5.2045,5.0631,202.135,210.5206,184.8205,192.873,328.8485,192.6150,188.7178,0.3203,,3.3608,5.5076,-99.0,,-99.0,-99.0,25.3486,,25.3495,,0.9797,78.2760,,8.027,,2.4561E+03,,5.8835E-01,,13.1377,13.1477,0.0748,,77.882,74.331,,,,,,,,,,,,
CalCOFI,2007SR,055,57,2007_055d,23-Jul-2020 19:57:22,23-Jul-2020 11:57:22,34.31702,-120.80202,080.0 055.0,080.0,055.0,27.000,27.197,,12.9803,,12.9806,,12.9805,33.6886,,33.6888,33.6902,,33.6918,33.6903,4.4854,,4.6691,4.7551,4.4265,,6.6262,5.2004,4.9778,195.358,203.4461,179.1662,192.795,312.2730,192.4658,185.8160,0.2802,,2.8836,4.7122,-99.0,,-99.0,-99.0,25.3817,,25.3829,,0.9448,78.9627,,8.020,,2.4312E+03,,4.7481E-01,,12.9767,12.9770,0.0774,,75.025,74.042,,,,,,,,,,,,
CalCOFI,2007SR,055,57,2007_055d,23-Jul-2020 19:57:24,23-Jul-2020 11:57:24,34.31702,-120.80202,080.0 055.0,080.0,055.0,28.000,28.204,,12.8913,,12.8917,,12.8915,33.6907,,33.6909,33.6927,,33.6943,33.6926,4.4285,,4.6096,4.6941,4.4251,,6.6228,5.1971,4.9456,192.878,200.8572,177.0970,192.731,306.2072,192.3434,184.7202,0.2667,,2.7232,4.4467,-99.0,,-99.0,-99.0,25.4009,,25.4024,,0.9028,79.7971,,8.012,,2.4355E+03,,4.2400E-01,,12.8875,12.8879,0.0800,,73.939,73.884,,,,,,,,,,,,
CalCOFI,2007SR,055,57,2007_055d,23-Jul-2020 19:57:26,23-Jul-2020 11:57:26,34.31702,-120.80202,080.0 055.0,080.0,055.0,29.000,29.211,,12.8021,,12.8216,,12.8119,33.6936,,33.6938,33.6938,,33.6954,33.6946,4.2881,,4.4629,4.5437,4.4209,,6.6128,5.1870,4.8654,186.759,194.4696,171.9917,192.543,291.2410,191.9838,181.9878,0.2349,,2.3457,3.8259,-99.0,,-99.0,-99.0,25.4207,,25.4170,,0.8715,80.4222,,8.000,,2.4606E+03,,3.9077E-01,,12.7982,12.8177,0.0826,,71.464,73.707,,,,,,,,,,,,
CalCOFI,2007SR,055,57,2007_055d,23-Jul-2020 19:57:28,23-Jul-2020 11:57:28,34.31702,-120.80202,080.0 055.0,080.0,055.0,30.000,30.219,,12.6581,,12.6611,,12.6596,33.6957,,33.6959,33.6975,,33.6991,33.6975,4.1583,,4.3273,4.4047,4.4195,,6.6095,5.1836,4.7942,181.099,188.5611,167.2694,192.475,277.3975,191.8538,179.5616,0.1902,,1.8162,2.9641,-99.0,,-99.0,-99.0,25.4505,,25.4514,,0.8377,81.1048,,7.990,,2.4736E+03,,3.4204E-01,,12.6541,12.6570,0.0852,,69.095,73.440,,,,,,,,,,,,
CalCOFI,2007SR,055,57,2007_055d,23-Jul-2020 19:57:29,23-Jul-2020 11:57:29,34.31702,-120.80202,080.0 055.0,080.0,055.0,31.000,31.226,,12.5524,,12.5251,,12.5388,33.6951,,33.6953,33.6954,,33.6970,33.6962,4.1565,,4.3254,4.4028,4.4110,,6.5892,5.1632,4.7830,181.018,188.4766,167.2018,192.102,277.1994,191.1403,179.1711,0.1667,,1.5383,2.5162,-99.0,,-99.0,-99.0,25.4707,,25.4762,,0.8209,81.4458,,7.981,,2.4640E+03,,3.0910E-01,,12.5483,12.5210,0.0877,,68.913,73.092,31,12.429,33.7091,,192.66,1.869,0.037,9.96,0.104,0.65,1.04,13.05
CalCOFI,2007SR,055,57,2007_055d,23-Jul-2020 19:57:32,23-Jul-2020 11:57:32,34.31702,-120.80202,080.0 055.0,080.0,055.0,32.000,32.233,,12.3943,,12.4127,,12.4035,33.7050,,33.7052,33.7098,,33.7114,33.7083,4.1415,,4.3098,4.3867,4.4011,,6.5655,5.1394,4.7631,180.359,187.7887,166.6520,191.664,275.5875,190.3026,178.4773,0.1423,,1.2501,2.0548,-99.0,,-99.0,-99.0,25.5089,,25.5091,,0.8035,81.8012,,7.966,,2.4561E+03,,2.9991E-01,,12.3900,12.4085,0.0902,,68.444,72.764,,,,,,,,,,,,
CalCOFI,2007SR,055,57,2007_055d,23-Jul-2020 19:57:34,23-Jul-2020 11:57:34,34.31702,-120.80202,080.0 055.0,080.0,055.0,33.000,33.241,,12.3153,,12.3156,,12.3155,33.7082,,33.7084,33.7099,,33.7115,33.7100,4.1235,,4.2909,4.3674,4.3762,,6.5061,5.0796,4.7235,179.572,186.9671,165.9954,190.577,273.6626,188.2234,177.1094,0.1483,,1.3209,2.1679,-99.0,,-99.0,-99.0,25.5267,,25.5279,,0.7945,81.9864,,7.955,,2.4696E+03,,2.8107E-01,,12.3109,12.3113,0.0927,,68.035,72.206,,,,,,,,,,,,
CalCOFI,2007SR,055,57,2007_055d,23-Jul-2020 19:57:36,23-Jul-2020 11:57:36,34.31702,-120.80202,080.0 055.0,080.0,055.0,34.000,34.248,,12.2891,,12.2871,,12.2881,33.7099,,33.7101,33.7124,,33.7140,33.7121,4.1305,,4.2983,4.3749,4.3569,,6.4600,5.0332,4.7041,179.874,187.2824,166.2473,189.734,274.4013,186.6110,176.4292,0.1506,,1.3481,2.2113,-99.0,,-99.0,-99.0,25.5330,,25.5354,,0.7918,82.0426,,7.949,,2.4598E+03,,2.6142E-01,,12.2846,12.2827,0.0952,,68.114,71.846,,,,,,,,,,,,
CalCOFI,2007SR,055,57,2007_055d,23-Jul-2020 19:57:38,23-Jul-2020 11:57:38,34.31702,-120.80202,080.0 055.0,080.0,055.0,35.000,35.255,,12.2779,,12.2794,,12.2787,33.7112,,33.7114,33.7138,,33.7154,33.7134,4.1228,,4.2902,4.3667,4.3332,,6.4034,4.9763,4.6715,179.539,186.9327,165.9678,188.700,273.5819,184.6333,175.3006,0.1510,,1.3528,2.2189,-99.0,,-99.0,-99.0,25.5362,,25.5379,,0.7934,82.0084,,7.943,,2.4547E+03,,2.5240E-01,,12.2733,12.2748,0.0976,,67.972,71.443,,,,,,,,,,,,
CalCOFI,2007SR,055,57,2007_055d,23-Jul-2020 19:57:40,23-Jul-2020 11:57:40,34.31702,-120.80202,080.0 055.0,080.0,055.0,36.000,36.263,,12.2768,,12.2778,,12.2773,33.7119,,33.7121,33.7143,,33.7159,33.7140,4.1189,,4.2861,4.3625,4.3075,,6.3421,4.9146,4.6386,179.369,186.7552,165.8260,187.583,273.1661,182.4968,174.1614,0.1488,,1.3268,2.1773,-99.0,,-99.0,-99.0,25.5370,,25.5386,,0.7915,82.0481,,7.939,,2.4651E+03,,2.3653E-01,,12.2721,12.2731,0.1001,,67.906,71.018,,,,,,,,,,,,
CalCOFI,2007SR,055,57,2007_055d,23-Jul-2020 19:57:42,23-Jul-2020 11:57:42,34.31702,-120.80202,080.0 055.0,080.0,055.0,37.000,37.270,,12.2642,,12.2643,,12.2643,33.7125,,33.7127,33.7150,,33.7166,33.7147,4.0989,,4.2652,4.3411,4.2826,,6.2827,4.8548,4.5980,178.499,185.8470,165.1001,186.498,271.0382,180.4215,172.7608,0.1486,,1.3245,2.1736,-99.0,,-99.0,-99.0,25.5399,,25.5418,,0.7927,82.0234,,7.935,,2.4714E+03,,2.2397E-01,,12.2593,12.2594,0.1026,,67.559,70.588,,,,,,,,,,,,
CalCOFI,2007SR,055,57,2007_055d,23-Jul-2020 19:57:44,23-Jul-2020 11:57:44,34.31702,-120.80202,080.0 055.0,080.0,055.0,38.000,38.278,,12.2578,,12.2541,,12.2560,33.7126,,33.7128,33.7146,,33.7162,33.7145,4.0782,,4.2436,4.3189,4.2631,,6.2361,4.8079,4.5634,177.594,184.9023,164.3451,185.647,268.8247,178.7938,171.5695,0.1587,,1.4438,2.3645,-99.0,,-99.0,-99.0,25.5412,,25.5435,,0.7918,82.0414,,7.933,,2.4529E+03,,2.1250E-01,,12.2528,12.2491,0.1050,,67.208,70.251,,,,,,,,,,,,
CalCOFI,2007SR,055,57,2007_055d,23-Jul-2020 19:57:45,23-Jul-2020 11:57:45,34.31702,-120.80201,080.0 055.0,080.0,055.0,39.000,39.285,,12.2252,,12.2222,,12.2237,33.7133,,33.7135,33.7157,,33.7173,33.7154,4.0778,,4.2432,4.3185,4.2519,,6.2094,4.7810,4.5498,177.576,184.8835,164.3300,185.158,268.7807,177.8585,171.0943,0.1482,,1.3197,2.1660,-99.0,,-99.0,-99.0,25.5480,,25.5504,,0.7894,82.0912,,7.930,,2.4446E+03,,1.9849E-01,,12.2202,12.2171,0.1075,,67.156,70.020,,,,,,,,,,,,
CalCOFI,2007SR,055,57,2007_055d,23-Jul-2020 19:57:47,23-Jul-2020 11:57:47,34.31702,-120.80201,080.0 055.0,080.0,055.0,40.000,40.292,,12.2080,,12.2100,,12.2090,33.7147,,33.7149,33.7170,,33.7186,33.7168,4.0895,,4.2554,4.3310,4.2353,,6.1697,4.7411,4.5361,178.087,185.4169,164.7564,184.436,270.0305,176.4775,170.6170,0.1425,,1.2525,2.0586,-99.0,,-99.0,-99.0,25.5524,,25.5538,,0.7968,81.9393,,7.927,,2.4152E+03,,1.9368E-01,,12.2028,12.2048,0.1099,,67.326,69.730,,,,,,,,,,,,
CalCOFI,2007SR,055,57,2007_055d,23-Jul-2020 19:57:50,23-Jul-2020 11:57:50,34.31702,-120.80202,080.0 055.0,080.0,055.0,41.000,41.300,,12.2010,,12.2031,,12.2021,33.7153,,33.7155,33.7175,,33.7191,33.7173,4.0934,,4.2595,4.3352,4.2093,,6.1077,4.6787,4.5070,178.258,185.5954,164.8991,183.301,270.4488,174.3066,169.6029,0.1368,,1.1852,1.9513,-99.0,,-99.0,-99.0,25.5543,,25.5555,,0.7934,82.0092,,7.925,,2.4367E+03,,1.8574E-01,,12.1957,12.1978,0.1124,,67.381,69.292,41,12.190,33.7154,,184.51,1.188,0.075,11.52,0.099,0.53,1.12,14.30
CalCOFI,2007SR,055,57,2007_055d,23-Jul-2020 19:57:52,23-Jul-2020 11:57:52,34.31702,-120.80202,080.0 055.0,080.0,055.0,42.000,42.307,,12.1962,,12.1962,,12.1962,33.7155,,33.7157,33.7178,,33.7194,33.7176,4.1049,,4.2715,4.3475,4.1929,,6.0685,4.6393,4.4934,178.757,186.1163,165.3154,182.587,271.6693,172.9409,169.1282,0.1455,,1.2879,2.1151,-99.0,,-99.0,-99.0,25.5553,,25.5571,,0.7942,81.9934,,7.922,,2.4339E+03,,1.7272E-01,,12.1907,12.1907,0.1148,,67.563,69.012,,,,,,,,,,,,
CalCOFI,2007SR,055,57,2007_055d,23-Jul-2020 19:57:54,23-Jul-2020 11:57:54,34.31702,-120.80200,080.0 055.0,080.0,055.0,43.000,43.315,,12.1943,,12.1941,,12.1942,33.7159,,33.7161,33.7181,,33.7197,33.7179,4.0947,,4.2609,4.3366,4.1800,,6.0377,4.6083,4.4725,178.312,185.6518,164.9441,182.025,270.5809,171.8660,168.4051,0.1522,,1.3670,2.2415,-99.0,,-99.0,-99.0,25.5560,,25.5578,,0.7925,82.0277,,7.922,,2.4322E+03,,1.6381E-01,,12.1887,12.1885,0.1173,,67.392,68.797,,,,,,,,,,,,
CalCOFI,2007SR,055,57,2007_055d,23-Jul-2020 19:57:56,23-Jul-2020 11:57:56,34.31702,-120.80200,080.0 055.0,080.0,055.0,44.000,44.322,,12.1928,,12.1927,,12.1928,33.7159,,33.7161,33.7181,,33.7197,33.7179,3.9286,,4.0873,4.1586,4.1782,,6.0334,4.6040,4.3813,171.078,178.1002,158.9085,181.948,252.8875,171.7187,165.3136,0.1537,,1.3847,2.2699,-99.0,,-99.0,-99.0,25.5564,,25.5581,,0.7930,82.0178,,7.920,,2.3987E+03,,1.5745E-01,,12.1870,12.1869,0.1197,,64.656,68.765,,,,,,,,,,,,
CalCOFI,2007SR,055,57,2007_055d,23-Jul-2020 19:57:58,23-Jul-2020 11:57:58,34.31702,-120.80201,080.0 055.0,080.0,055.0,45.000,45.330,,12.0989,,12.0837,,12.0913,33.7110,,33.7112,33.7104,,33.7120,33.7116,3.6908,,3.8388,3.9039,4.1830,,6.0449,4.6155,4.2597,160.722,167.2896,150.2681,182.155,227.5582,172.1147,161.1914,0.1360,,1.1757,1.9363,-99.0,,-99.0,-99.0,25.5704,,25.5728,,0.7896,82.0866,,7.916,,2.4179E+03,,1.5536E-01,,12.0931,12.0779,0.1222,,60.623,68.684,,,,,,,,,,,,
CalCOFI,2007SR,055,57,2007_055d,23-Jul-2020 19:58:00,23-Jul-2020 11:58:00,34.31702,-120.80202,080.0 055.0,080.0,055.0,46.000,46.337,,11.7622,,11.7712,,11.7667,33.7207,,33.7209,33.7225,,33.7241,33.7225,3.6448,,3.7908,3.8546,4.1967,,6.0776,4.6484,4.2515,158.706,165.1851,148.5861,182.740,222.6274,173.2336,160.9099,0.0986,,0.7349,1.2379,-99.0,,-99.0,-99.0,25.6412,,25.6409,,0.7809,82.2651,,7.906,,2.4058E+03,,1.5273E-01,,11.7563,11.7654,0.1246,,59.448,68.464,,,,,,,,,,,,
CalCOFI,2007SR,055,57,2007_055d,23-Jul-2020 19:58:02,23-Jul-2020 11:58:02,34.31702,-120.80200,080.0 055.0,080.0,055.0,47.000,47.344,,11.6438,,11.6443,,11.6441,33.7271,,33.7273,33.7302,,33.7318,33.7296,3.5045,,3.6442,3.7043,4.1914,,6.0649,4.6357,4.1700,152.596,158.8069,143.4883,182.502,207.6832,172.7784,158.1334,0.0884,,0.6148,1.0490,-99.0,,-99.0,-99.0,25.6682,,25.6705,,0.7556,82.7878,,7.897,,2.4355E+03,,1.4511E-01,,11.6379,11.6384,0.1269,,57.020,68.197,,,,,,,,,,,,
CalCOFI,2007SR,055,57,2007_055d,23-Jul-2020 19:58:04,23-Jul-2020 11:58:04,34.31704,-120.80200,080.0 055.0,080.0,055.0,48.000,48.352,,11.5626,,11.5504,,11.5565,33.7295,,33.7297,33.7306,,33.7322,33.7310,3.4376,,3.5742,3.6326,4.1847,,6.0489,4.6196,4.1261,149.677,155.7597,141.0529,182.208,200.5437,172.2160,156.6345,0.0902,,0.6360,1.0823,-99.0,,-99.0,-99.0,25.6851,,25.6882,,0.7400,83.1105,,7.889,,2.4388E+03,,1.4357E-01,,11.5566,11.5444,0.1293,,55.835,67.954,,,,,,,,,,,,